Weather History for K0J4 - February, 2014

Change the Weather History Date:

Sunday, February 23, 2014

  Actual Average (KCEW) Record (KCEW)
Temperature  
Mean Temperature 56 °F -  
Max Temperature 63 °F 68 °F 82 °F (1980)
Min Temperature 48 °F 45 °F 25 °F (1999)
Degree Days  
Heating Degree Days 10    
Growing Degree Days 6 (Base 50)    
Moisture  
Dew Point 53 °F    
Average Humidity 89    
Maximum Humidity 97    
Minimum Humidity 64    
Precipitation  
Precipitation 0.42 in - - ()
Sea Level Pressure  
Sea Level Pressure 30.03 in    
Wind  
Wind Speed 1 mph (NE)    
Max Wind Speed 5 mph    
Max Gust Speed -    
Visibility 6 miles    
Events Fog , Rain , Thunderstorm    
Averages and records for this station are not official NWS values.
T = Trace of Precipitation, MM = Missing Value Source: NWS Daily Summary

Daily Weather History Graph

Daily Weather History Graph

Search for Another Location

Airport or City:

Trip Planner

Search our weather history database for the weather conditions in past years. The results will help you decide how hot, cold, wet, or windy it might be!

Date:

Astronomy

Feb. 23, 2014 Rise Set
Actual Time 6:18 AM CST 5:39 PM CST
Civil Twilight 5:53 AM CST 6:03 PM CST
Nautical Twilight 5:25 AM CST 6:31 PM CST
Astronomical Twilight 4:57 AM CST 6:59 PM CST
Moon 1:04 AM CST (2/23) 11:52 AM CST (2/23)
Length of Visible Light 12h 09m
Length of Day
11h 20m
Last Quarter, 38% of the Moon is Illuminated
Feb 23
Last Quarter
Mar 1
New
Mar 8
First Quarter
Mar 16
Full
Mar 23
Last Quarter

Hourly Weather History & Observations

Time (CST) Temp. Dew Point Humidity Pressure Visibility Wind Dir Wind Speed Gust Speed Precip Events Conditions
12:58 AM 48.9 °F 44.1 °F 83% 30.06 in 10.0 mi Calm Calm - N/A   Clear
1:58 AM 50.0 °F 45.0 °F 83% 30.04 in 10.0 mi Calm Calm - N/A   Clear
2:58 AM 53.1 °F 46.0 °F 77% 30.04 in 10.0 mi Calm Calm - N/A   Overcast
3:23 AM 53.6 °F 44.6 °F 72% 30.03 in 10.0 mi Calm Calm - N/A   Overcast
3:27 AM 53.6 °F 44.6 °F 72% 30.02 in 10.0 mi Calm Calm - N/A   Mostly Cloudy
3:35 AM 53.6 °F 42.8 °F 67% 30.02 in 10.0 mi Calm Calm - N/A   Mostly Cloudy
3:44 AM 53.6 °F 42.8 °F 67% 30.01 in 10.0 mi East 4.6 mph - N/A   Scattered Clouds
3:58 AM 54.0 °F 42.1 °F 64% 30.01 in 10.0 mi Calm Calm - N/A   Partly Cloudy
4:58 AM 53.1 °F 46.0 °F 77% 30.02 in 10.0 mi NE 4.6 mph - 0.00 in Rain Light Rain
5:13 AM 51.8 °F 46.4 °F 82% 30.03 in 8.0 mi Calm Calm - 0.02 in Rain Rain
5:19 AM 51.8 °F 46.4 °F 82% 30.04 in 8.0 mi Calm Calm - 0.02 in Rain Rain
5:34 AM 51.8 °F 48.2 °F 88% 30.05 in 10.0 mi Calm Calm - 0.02 in Rain , Thunderstorm Light Thunderstorms and Rain
5:58 AM 51.1 °F 48.0 °F 89% 30.06 in 10.0 mi NNW 4.6 mph - 0.02 in Rain , Thunderstorm Light Thunderstorms and Rain
6:06 AM 51.8 °F 48.2 °F 88% 30.05 in 5.0 mi Calm Calm - 0.03 in Rain Heavy Rain
6:58 AM 53.1 °F 50.0 °F 89% 30.04 in 10.0 mi NE 3.5 mph - 0.04 in Rain Light Rain
7:58 AM 53.1 °F 51.1 °F 93% 30.07 in 10.0 mi Calm Calm - 0.00 in Rain Light Rain
8:05 AM 53.6 °F 51.8 °F 94% 30.08 in 10.0 mi Calm Calm - 0.00 in Rain Light Rain
8:13 AM 53.6 °F 51.8 °F 94% 30.09 in 10.0 mi North 3.5 mph - 0.00 in   Overcast
8:58 AM 53.1 °F 50.0 °F 89% 30.09 in 10.0 mi East 3.5 mph - 0.00 in Rain Light Rain
9:58 AM 54.0 °F 51.1 °F 90% 30.07 in 6.0 mi North - - 0.02 in Rain Light Rain
10:57 AM 54.0 °F 53.1 °F 97% 30.07 in 4.0 mi North - - 0.04 in Rain Rain
11:49 AM 55.4 °F 53.6 °F 94% 30.06 in 2.5 mi North - - 0.09 in Rain Heavy Rain
11:58 AM 55.0 °F 53.1 °F 93% 30.06 in 2.5 mi North - - 0.11 in Rain Rain
12:04 PM 55.4 °F 53.6 °F 94% 30.07 in 3.0 mi North - - 0.02 in Rain Rain
12:58 PM 57.0 °F 55.0 °F 93% 30.03 in 9.0 mi North - - 0.03 in   Overcast
1:29 PM 57.2 °F 55.4 °F 94% 30.01 in 2.5 mi North - - 0.06 in Rain Heavy Rain
1:34 PM 57.2 °F 55.4 °F 94% 30.01 in 2.5 mi North - - 0.06 in Rain Rain
1:38 PM 57.2 °F 55.4 °F 94% 30.00 in 4.0 mi North - - 0.06 in Rain Light Rain
1:58 PM 57.9 °F 57.0 °F 97% 30.00 in 2.5 mi North - - 0.08 in Rain Rain
2:14 PM 59.0 °F 57.2 °F 94% 30.00 in 2.5 mi North - - 0.06 in Rain Rain
2:17 PM 59.0 °F 57.2 °F 94% 30.00 in 3.0 mi North - - 0.06 in Rain Rain
2:58 PM 61.0 °F 59.0 °F 93% 30.00 in 10.0 mi North - - 0.06 in Rain Light Rain
3:58 PM 62.1 °F 60.1 °F 93% 29.99 in 7.0 mi North - - 0.00 in Rain Light Rain
4:58 PM 63.0 °F 61.0 °F 93% 29.99 in 5.0 mi North - - 0.02 in Rain Rain
5:58 PM 63.0 °F 61.0 °F 93% 29.99 in 10.0 mi North - - 0.00 in   Overcast
6:58 PM 62.1 °F 61.0 °F 96% 30.00 in 8.0 mi North - - N/A   Overcast
7:58 PM 62.1 °F 61.0 °F 96% 30.02 in 3.0 mi North - - N/A   Overcast
8:03 PM 62.6 °F 60.8 °F 94% 30.02 in 2.0 mi North - - 0.00 in Rain Light Rain
8:09 PM 62.6 °F 60.8 °F 94% 30.02 in 1.8 mi North - - 0.00 in Rain Light Rain
8:17 PM 62.6 °F 60.8 °F 94% 30.03 in 2.0 mi North - - 0.00 in Rain Light Rain
8:25 PM 62.6 °F 60.8 °F 94% 30.02 in 1.2 mi North - - 0.00 in   Overcast
8:58 PM 62.1 °F 61.0 °F 96% 30.03 in 1.2 mi North - - 0.00 in   Overcast
9:28 PM 62.6 °F 60.8 °F 94% 30.03 in 0.8 mi North - - N/A   Mist
9:58 PM 62.1 °F 61.0 °F 96% 30.04 in 0.5 mi North - - N/A Fog Fog
10:58 PM 62.1 °F 61.0 °F 96% 30.05 in 0.5 mi North - - N/A Fog Fog
11:58 PM 62.1 °F 61.0 °F 96% 30.03 in 0.5 mi North - - N/A Fog Fog